Theta_e
352 351 350 350 351 354 355 355 342 335 336 325 328 331 334 339 339 341 341 342 343 344 344 345 347 347 347 346 346 349 351 349 348 345 344 350 352 352 353 351 351 350 350 350 349 346 346 346 347 346 346 347 347 347 347 347 347 347 347 347 346 345 346 345 345 344 344 344 344 344 344 344 342 342 341 341 341 339 339 339 339 339 340 339 339 339 339 338 338 339 338 338 338 339 339 339 338
354 352 352 350 351 356 355 353 335 328 331 324 330 336 336 340 339 340 339 341 343 344 346 347 348 348 347 347 348 347 349 352 352 352 351 352 353 353 352 350 350 349 349 349 349 348 347 346 346 346 347 347 347 347 347 347 347 347 348 347 346 346 345 345 345 344 344 343 344 344 344 343 342 342 342 342 341 340 339 339 340 340 341 340 340 340 340 339 339 339 339 338 339 340 340 340 340
354 354 354 352 353 356 354 346 332 324 325 325 332 339 339 339 339 340 339 342 345 346 347 349 348 348 347 347 349 347 349 351 352 352 352 352 352 353 352 350 349 348 348 348 350 350 348 346 345 345 346 347 347 347 347 347 347 347 347 347 346 346 346 345 344 344 344 344 343 343 343 342 342 342 343 343 342 341 340 341 341 340 341 341 341 340 340 339 339 339 339 340 340 341 341 341 341
352 354 353 355 358 355 350 338 333 326 323 326 331 338 341 340 342 343 344 346 347 347 348 348 349 349 348 346 348 349 349 351 351 350 352 351 351 352 350 348 348 347 348 348 350 351 349 346 345 345 345 346 347 347 346 346 347 347 346 346 346 345 345 345 345 344 344 343 343 343 343 342 341 342 342 342 342 341 340 341 341 340 341 341 341 340 340 340 340 340 340 341 341 342 341 341 341
352 353 349 356 361 347 342 334 335 330 325 328 331 338 342 343 346 345 348 348 347 347 347 347 347 349 350 350 349 349 349 350 351 350 352 351 351 351 349 348 348 348 347 347 348 349 348 346 345 346 345 345 346 347 347 347 346 346 346 346 346 346 346 346 345 345 345 343 343 342 342 342 342 342 342 341 340 340 340 341 340 340 341 341 342 341 340 340 340 339 339 340 340 341 341 341 341
351 353 349 355 357 345 342 331 330 331 331 335 335 341 343 344 347 347 349 348 348 347 346 347 345 348 350 351 350 350 349 349 350 351 352 351 351 350 349 350 350 349 346 346 346 347 347 346 346 348 347 345 346 347 347 347 347 346 346 346 346 346 346 346 345 344 344 343 343 342 342 342 342 342 341 341 341 341 341 340 339 340 341 342 343 342 341 340 341 341 340 339 339 340 340 340 341
351 355 355 354 352 345 338 328 329 332 336 339 338 342 343 345 347 347 348 347 347 345 345 346 346 345 346 348 350 351 350 349 350 351 352 351 351 350 350 352 351 350 347 346 346 346 345 344 346 348 348 347 347 347 348 348 348 347 347 347 347 346 346 345 344 343 343 343 343 343 342 342 343 342 342 341 341 341 341 341 340 340 341 341 341 340 341 341 341 341 340 339 338 339 339 339 340
349 354 356 348 342 338 335 331 333 336 338 340 341 343 343 346 347 347 346 345 344 344 345 346 346 345 346 349 349 351 350 350 350 351 352 350 350 350 350 352 351 350 348 346 345 345 345 344 346 348 347 347 347 347 347 348 348 347 347 347 347 345 344 344 343 343 343 343 343 343 343 343 343 342 342 342 341 341 341 340 340 340 340 340 340 339 339 339 339 339 339 338 338 338 339 339 339
351 354 351 343 336 333 331 332 334 339 341 340 341 344 345 345 346 345 343 344 343 344 346 345 345 345 348 351 350 351 351 351 351 351 352 351 350 349 350 351 351 350 348 346 345 345 346 344 346 347 348 347 348 348 347 347 346 347 346 346 345 344 344 344 344 343 343 343 343 342 342 342 342 342 341 341 340 340 340 340 340 339 338 338 338 338 338 337 338 338 337 336 337 337 338 339 340
354 350 344 338 333 329 326 330 336 339 341 341 342 343 344 343 344 344 341 341 343 346 348 346 346 345 347 349 350 351 350 351 350 350 352 352 351 350 351 351 350 349 348 347 345 345 345 343 344 346 346 346 347 346 346 345 345 345 345 345 344 344 344 344 344 343 342 342 342 341 341 341 341 341 340 340 340 339 339 339 338 336 337 337 337 337 336 336 336 336 335 335 335 337 338 339 339
354 343 342 335 329 325 324 329 335 340 341 341 343 343 343 341 342 343 344 344 346 348 348 346 346 347 349 350 350 350 351 350 350 350 351 352 352 351 352 352 351 349 349 347 346 346 345 344 344 344 344 344 345 345 345 345 345 345 345 344 343 343 343 343 342 342 341 341 341 341 341 341 340 340 339 339 338 337 337 337 336 336 336 336 336 337 336 335 336 335 334 335 335 335 336 337 338
350 337 339 332 327 327 328 331 334 340 341 341 342 344 344 341 341 341 344 346 346 348 345 347 348 348 349 350 350 349 350 350 349 349 350 350 352 352 352 351 351 350 348 347 346 346 346 346 345 344 343 342 344 344 344 344 344 344 343 343 343 342 342 342 342 341 341 341 341 341 341 340 340 339 338 337 336 336 336 336 336 336 336 336 336 335 336 336 335 335 335 336 336 336 337 338 338
347 336 336 330 330 333 331 333 336 339 340 340 342 344 345 343 342 342 344 346 347 345 344 346 347 347 348 349 350 349 349 349 349 349 349 350 351 351 350 350 351 351 348 345 345 346 346 347 347 346 344 343 343 343 343 343 343 343 343 342 342 342 342 342 342 341 341 341 341 340 340 339 339 338 336 335 335 334 334 335 336 336 337 336 336 335 336 336 335 335 336 336 336 338 339 339 339
347 339 335 331 333 334 332 333 334 336 336 341 343 343 346 344 343 343 345 346 347 347 345 348 348 348 348 349 349 347 348 348 348 349 349 350 350 351 350 350 350 350 349 345 344 344 346 346 347 346 344 345 344 343 343 342 343 343 342 342 342 342 342 342 342 341 341 341 340 339 339 338 337 337 337 335 335 334 335 336 335 336 336 336 336 336 336 336 336 337 337 337 338 338 339 339 339
347 341 335 332 332 332 332 333 333 332 335 341 344 345 346 345 345 345 346 347 347 348 348 350 349 347 347 348 348 348 349 348 348 348 349 350 350 350 349 350 349 349 349 348 346 345 346 346 346 346 345 346 345 345 345 343 342 342 342 342 342 341 342 342 342 341 341 341 340 339 339 338 337 337 338 337 337 337 337 336 336 337 336 337 336 337 336 336 337 337 338 337 338 338 339 339 339
346 342 335 331 329 329 330 334 333 331 336 341 344 346 347 347 348 347 348 347 349 350 352 351 348 347 346 348 349 349 349 348 348 348 349 349 350 350 348 349 349 348 349 350 349 348 347 347 347 346 347 347 345 346 346 345 343 342 342 342 342 341 342 342 342 342 341 341 341 340 340 339 339 339 340 340 339 338 338 337 337 338 337 337 338 338 337 337 337 337 339 338 339 339 339 339 339
343 341 334 329 328 328 331 334 333 332 337 342 345 346 345 347 350 349 349 348 350 352 353 353 350 348 348 350 350 349 349 347 348 348 349 349 349 349 349 349 348 348 349 350 349 349 348 347 348 347 347 347 345 346 346 346 344 343 344 343 342 342 342 342 342 343 342 342 341 341 341 341 341 341 341 342 342 340 339 339 338 339 339 338 338 338 337 337 337 338 340 339 339 339 339 339 340
341 339 331 328 329 330 331 334 334 334 338 342 344 345 346 347 350 351 349 349 352 355 355 355 354 353 352 352 350 349 348 347 349 348 348 348 347 348 348 349 348 348 348 349 348 347 348 346 346 346 346 347 346 346 346 347 345 344 345 343 343 344 343 343 343 345 344 343 343 341 341 341 341 342 342 342 342 341 340 339 339 339 339 339 338 338 337 336 337 339 340 340 340 340 340 339 340
338 334 331 329 331 334 335 336 337 338 339 342 344 343 345 347 348 350 349 349 352 355 356 356 355 355 353 351 350 349 348 348 349 348 348 349 347 346 347 349 349 348 348 349 348 346 346 347 347 346 346 345 345 344 344 345 345 344 344 343 344 344 344 343 343 344 344 344 343 343 342 342 341 341 342 342 341 341 340 339 339 340 339 338 337 338 338 338 339 339 340 339 340 340 339 339 340
335 333 331 330 333 335 338 339 340 341 340 343 344 343 345 346 347 346 346 348 349 352 355 356 354 354 352 351 350 349 349 350 349 348 348 348 348 347 347 348 349 349 348 348 348 345 346 346 347 348 346 345 345 344 343 344 343 343 342 343 343 343 344 342 342 343 343 343 343 343 343 343 342 342 342 341 341 340 340 340 339 339 339 337 337 338 339 339 339 339 340 340 340 341 341 339 338
332 332 331 333 336 337 341 342 342 342 341 343 343 344 346 345 345 345 345 345 345 350 354 355 354 353 351 351 350 350 350 351 349 348 349 349 349 349 348 348 348 349 349 349 347 344 344 345 346 347 346 345 346 344 344 344 344 343 343 343 343 343 343 343 342 343 343 342 343 343 343 344 342 344 345 343 343 342 341 341 340 342 342 341 340 339 340 340 339 339 340 341 342 342 342 339 336
331 333 334 336 337 339 343 344 343 342 341 341 342 343 344 346 346 346 346 344 346 351 354 354 354 352 352 351 351 351 351 351 350 349 349 350 350 349 349 349 349 349 348 348 347 342 343 345 345 346 345 344 344 345 347 348 345 343 344 343 343 343 343 344 344 344 344 343 343 344 343 345 344 345 347 345 344 343 343 342 341 342 342 342 341 341 341 340 338 339 340 342 343 342 341 339 336
331 334 337 339 339 342 343 343 343 342 340 341 342 342 343 346 347 348 350 350 351 354 355 355 354 352 352 352 352 352 353 352 351 349 350 350 349 349 348 348 349 348 347 348 347 344 342 344 345 346 346 344 344 345 347 348 346 345 346 345 343 344 344 345 345 345 345 344 343 343 343 346 347 347 348 347 345 344 345 344 342 340 340 342 343 343 343 342 340 339 340 342 342 342 341 339 337
331 336 340 341 342 342 343 343 342 341 341 342 342 343 344 346 347 350 352 354 354 354 355 355 354 353 352 352 353 352 353 353 352 350 349 348 348 348 347 347 348 348 348 348 348 348 345 344 345 346 346 344 344 344 344 345 345 346 348 346 344 344 344 345 346 346 345 343 343 343 342 343 346 348 349 347 345 345 344 343 343 342 342 343 343 343 343 345 345 342 340 341 341 341 341 340 340
334 338 341 344 343 344 344 344 342 340 341 342 343 345 346 348 348 351 353 354 355 355 355 354 353 353 353 353 352 353 352 352 352 351 351 350 348 348 348 348 348 348 348 348 348 349 348 346 346 346 346 345 343 344 343 344 344 344 347 346 345 344 345 346 346 346 344 342 342 342 341 341 343 346 347 345 343 342 342 341 342 342 342 341 342 343 342 343 346 346 344 341 340 340 341 343 343
337 339 342 344 343 343 344 342 342 341 341 342 343 345 347 348 348 351 353 354 354 355 354 354 354 353 353 352 353 354 353 352 352 351 351 351 349 349 349 348 348 348 348 348 349 349 349 348 348 348 347 346 345 345 344 345 345 344 343 344 345 345 345 346 346 345 344 343 343 342 341 341 341 343 345 344 342 340 340 340 339 340 339 339 339 342 342 342 344 347 347 344 342 340 341 343 344
340 342 342 345 344 344 344 342 342 342 342 342 342 342 345 345 344 347 351 353 354 355 355 354 354 354 353 352 353 354 353 352 353 353 352 352 351 350 350 349 348 349 348 348 349 350 349 348 348 348 348 348 347 346 344 344 345 343 342 343 345 345 345 345 345 345 345 343 343 341 340 340 340 340 341 342 341 341 341 341 340 340 340 340 340 340 340 340 341 344 344 345 345 343 341 342 343
343 344 344 345 345 345 344 343 343 342 342 342 343 341 343 342 341 348 351 352 352 353 355 355 354 355 354 353 354 355 354 354 354 354 354 353 353 351 350 350 350 350 349 349 350 350 349 348 348 348 348 348 346 346 344 342 342 340 340 341 341 343 344 344 345 344 343 342 341 339 339 339 340 340 340 340 341 341 342 342 342 342 342 342 342 341 339 339 339 340 339 340 342 342 341 341 342
342 342 343 344 344 344 342 343 343 343 343 343 343 339 339 342 343 349 351 351 350 350 353 355 355 355 355 355 355 356 356 355 355 355 354 354 353 353 352 352 352 351 351 351 350 350 350 350 349 347 347 347 346 344 342 339 339 339 339 339 338 339 340 342 342 342 342 341 341 339 339 340 342 341 342 343 343 342 343 342 343 342 342 342 343 341 339 339 339 338 338 338 338 339 341 342 342
340 339 339 341 340 341 341 343 344 344 345 347 343 334 335 344 347 350 351 351 350 348 350 352 353 356 356 356 356 357 357 356 356 355 355 355 355 354 354 354 354 353 353 352 350 350 350 351 350 348 346 345 344 343 341 339 339 339 339 338 338 338 339 341 341 340 340 340 341 341 342 344 344 344 345 346 346 345 345 345 345 344 344 343 343 341 340 340 340 340 341 341 339 338 340 343 345
338 337 337 338 333 335 342 342 343 343 344 349 343 331 335 345 348 350 351 350 349 347 348 349 351 354 356 356 356 356 357 357 357 356 356 356 355 356 355 355 353 353 355 353 349 348 349 349 348 346 343 341 340 341 341 341 340 341 341 339 338 338 338 339 340 341 341 340 340 342 342 343 343 344 345 346 348 348 347 347 347 345 345 346 345 344 343 343 342 341 342 342 341 341 341 342 344
336 331 329 333 331 333 342 343 343 342 341 347 342 331 336 346 348 350 350 350 348 346 346 348 349 351 353 355 355 355 356 357 357 357 356 356 357 356 356 354 352 352 354 353 350 348 348 347 344 341 340 339 339 341 342 343 344 344 344 343 341 341 340 340 341 341 342 342 341 341 342 342 343 344 346 348 349 348 348 348 347 346 347 348 348 347 345 345 344 343 342 340 341 342 342 343 342
334 330 325 329 330 332 339 341 344 343 341 343 340 334 339 346 349 349 348 350 348 345 344 346 347 349 351 352 353 354 355 356 356 357 356 357 357 355 356 354 351 351 351 352 351 349 348 347 343 342 342 343 344 345 346 346 347 347 347 347 346 346 344 344 343 343 343 344 344 344 345 347 348 348 349 350 348 346 346 345 345 345 345 345 346 346 345 345 345 344 343 340 338 338 341 343 342
329 330 327 328 331 330 333 337 342 344 342 341 337 338 341 344 350 349 348 349 348 346 345 345 346 348 350 351 352 353 354 355 356 357 357 358 356 353 355 353 350 350 350 351 351 349 348 347 345 344 344 343 345 347 347 347 347 347 347 348 348 347 347 346 347 347 348 349 350 350 350 350 351 349 345 345 345 343 341 340 341 344 345 344 344 345 346 345 345 345 344 342 338 336 337 339 342
324 326 325 327 330 330 331 335 341 342 341 340 339 341 342 344 349 350 348 347 348 348 345 345 346 347 350 351 351 351 352 353 354 356 356 357 357 353 354 354 352 352 351 351 350 350 348 348 348 347 346 346 346 347 347 346 347 347 348 349 349 349 348 348 348 347 348 349 349 349 349 348 350 350 343 339 340 341 340 340 341 344 346 346 343 343 347 347 345 345 344 343 340 338 334 334 340
328 327 327 326 326 329 332 336 339 342 340 340 339 340 344 346 347 350 349 347 348 348 347 347 346 347 349 349 350 351 351 352 353 356 356 356 356 354 355 356 354 353 352 351 351 350 350 349 350 350 349 349 349 350 349 349 349 349 348 349 348 347 345 344 344 342 343 345 345 345 345 344 346 349 346 341 339 341 341 341 342 344 345 345 343 343 348 349 345 344 344 344 344 341 337 336 340
330 329 328 327 327 327 333 338 340 342 338 339 341 341 344 346 345 350 350 348 348 349 350 349 348 347 347 348 350 350 351 352 355 355 353 353 353 352 353 353 353 352 351 351 351 350 350 350 351 351 349 346 346 348 349 350 350 349 348 348 347 345 344 343 342 343 344 345 344 342 342 343 343 344 343 342 340 339 339 339 339 339 342 345 344 343 347 348 346 345 345 346 346 345 342 341 343
329 328 326 326 326 328 334 339 340 342 338 338 345 344 344 347 346 349 351 349 347 346 349 350 349 348 348 349 350 351 353 355 356 355 351 350 353 351 350 351 351 351 352 351 351 350 350 350 351 351 349 347 345 344 346 347 348 348 347 347 347 346 345 345 345 346 345 344 343 342 342 342 341 341 341 340 339 339 339 338 338 337 340 343 344 343 343 344 345 347 348 349 348 347 345 345 346
328 328 325 323 326 330 335 339 342 341 337 339 346 344 345 350 347 349 352 350 346 345 347 349 351 350 350 351 350 352 356 358 358 356 353 352 353 352 351 351 351 352 353 352 351 351 350 351 351 350 349 347 346 346 346 346 346 347 347 347 347 346 345 345 344 343 341 340 339 339 339 339 339 339 338 337 337 338 339 339 339 339 339 339 341 342 342 343 344 346 347 348 348 347 346 345 345
328 327 324 322 327 328 328 335 341 341 337 340 347 344 347 353 352 353 352 349 351 351 350 351 353 354 354 352 352 355 357 359 358 356 355 355 354 353 352 352 352 352 352 351 351 352 351 351 351 349 347 345 346 345 344 343 342 342 343 341 340 338 337 336 336 336 335 335 333 334 338 337 335 335 335 335 335 335 336 337 337 339 339 339 340 340 339 341 343 343 344 345 346 347 346 346 344
327 328 325 323 328 328 326 335 341 340 340 344 345 339 342 352 352 351 352 352 355 355 353 354 354 355 356 355 356 357 357 358 359 357 357 356 355 354 351 351 352 350 351 351 351 350 350 349 346 343 339 337 337 336 334 333 332 331 330 329 329 328 328 328 331 333 334 334 333 335 336 333 330 330 329 330 331 332 332 333 335 336 337 338 338 338 337 339 340 341 343 344 346 346 345 346 346
324 327 328 326 329 329 330 339 339 333 332 340 341 329 330 344 349 347 349 352 353 353 354 354 354 355 356 357 357 358 357 358 359 359 357 356 356 354 350 349 350 351 351 350 349 349 345 339 334 330 327 326 325 325 325 324 324 324 323 325 330 332 331 331 332 331 329 328 327 328 326 323 325 325 323 324 327 329 331 332 334 335 337 337 337 338 338 338 339 340 341 343 345 346 345 346 346
321 326 329 329 330 329 333 338 331 323 325 338 341 327 324 334 344 348 349 350 351 352 354 353 355 356 356 355 354 356 357 358 359 359 357 357 357 355 350 347 350 353 352 349 348 344 336 329 325 323 321 321 322 321 322 322 322 323 323 325 328 329 331 331 327 324 323 323 322 323 322 321 324 324 323 325 326 327 329 332 335 337 338 338 338 340 340 337 337 338 339 341 342 344 345 345 344
322 329 330 329 330 331 336 336 327 324 330 339 342 334 324 324 335 347 350 351 351 351 354 353 354 356 355 354 353 355 357 356 358 358 358 357 357 356 352 349 352 354 351 348 343 335 328 326 324 323 322 322 323 323 323 324 323 323 323 324 324 325 328 327 326 325 324 325 326 328 329 327 326 326 327 328 329 330 332 334 337 338 338 338 340 342 341 337 336 337 338 339 340 342 343 343 342
327 334 332 331 333 334 336 332 328 330 332 329 334 337 327 322 333 348 349 350 352 352 353 353 353 354 355 353 352 355 357 356 357 356 356 357 356 356 355 353 354 352 349 344 336 330 328 328 325 325 325 326 326 327 327 326 325 324 324 323 324 325 326 325 326 329 328 329 332 333 334 334 332 330 330 330 332 335 335 337 338 339 340 340 340 341 341 338 335 335 337 337 338 340 341 342 342
331 336 336 336 336 335 335 332 329 330 327 323 327 332 325 320 329 342 345 347 350 351 352 352 353 354 355 355 353 354 356 357 356 355 355 356 356 356 355 354 350 347 344 337 330 330 331 329 327 327 328 328 328 328 328 329 328 325 324 324 323 324 325 324 326 330 331 331 331 332 333 332 332 331 330 330 332 336 337 337 338 338 339 340 339 339 339 338 336 336 338 338 338 339 340 341 342
334 336 335 335 336 336 335 333 329 327 323 322 324 329 325 320 323 333 343 346 346 347 349 350 353 354 355 355 354 354 356 357 357 355 355 356 356 355 354 351 345 342 338 331 329 333 333 330 329 329 329 330 329 329 330 330 329 327 325 325 323 322 323 323 324 327 328 327 326 328 328 327 327 328 328 328 330 332 335 336 336 336 336 337 338 339 340 340 340 340 339 339 338 339 339 341 341
335 334 333 329 330 331 329 328 328 323 320 323 326 329 326 320 322 329 340 344 343 341 343 347 351 353 356 356 354 354 356 357 357 355 355 356 355 353 351 348 341 336 332 329 331 334 334 332 331 331 331 331 330 330 330 330 329 328 326 325 323 321 321 321 322 324 324 323 324 324 324 326 328 326 326 328 327 327 330 333 334 333 332 333 335 337 337 337 339 339 340 339 338 338 338 338 339
332 332 328 323 321 322 321 321 322 320 321 325 328 328 326 323 327 332 336 339 343 342 341 344 349 353 356 357 354 353 354 356 356 355 355 356 353 349 349 345 336 330 329 329 331 334 334 332 331 331 332 331 331 331 330 330 329 328 327 324 322 320 321 322 323 324 325 324 325 324 324 327 328 326 327 328 326 325 328 331 332 331 330 330 331 331 332 332 333 334 336 338 338 338 338 337 337
327 326 323 319 319 319 318 319 319 319 320 325 329 328 323 322 329 336 337 339 343 345 344 343 347 351 355 357 354 353 354 354 355 355 355 354 352 348 347 342 332 328 328 327 331 335 335 332 332 332 331 331 331 330 330 331 330 328 326 323 321 320 322 324 325 326 326 325 324 323 323 324 325 325 326 327 327 327 328 331 331 330 329 329 329 330 330 330 330 332 334 334 334 336 336 337 336
327 328 326 321 319 318 318 318 318 318 320 324 328 326 320 320 332 342 343 343 343 344 346 347 349 350 353 357 355 353 353 353 354 355 354 354 352 347 344 338 330 327 327 329 333 335 335 332 331 332 332 331 331 330 331 330 329 328 326 322 320 320 322 324 325 326 326 326 324 323 322 323 324 324 324 325 326 326 328 329 329 327 327 328 328 329 329 330 330 331 333 331 332 334 336 336 334
327 330 326 322 322 322 319 319 320 319 318 322 324 323 323 328 338 344 342 343 344 344 346 348 350 351 352 356 355 353 352 353 354 354 354 354 350 346 343 335 329 328 329 332 335 335 333 331 331 331 332 331 330 330 331 329 329 328 325 322 320 321 322 325 328 328 326 325 324 324 323 324 324 324 324 324 325 326 327 327 327 326 326 327 329 329 329 330 329 329 330 330 333 336 336 335 334
326 325 323 325 329 327 321 319 322 320 316 320 323 322 324 329 333 338 341 342 343 344 345 346 348 350 352 355 356 353 353 353 354 354 354 353 348 345 342 336 333 333 333 335 336 333 330 329 329 331 330 330 330 331 331 329 328 327 325 321 320 321 324 327 329 328 325 323 323 324 325 325 325 325 325 325 325 325 326 327 327 327 327 327 328 328 328 328 328 328 328 329 332 334 335 335 334
326 323 323 328 329 328 324 320 320 320 317 319 322 320 321 322 326 337 342 338 337 342 345 345 345 350 353 355 355 355 353 353 354 355 355 352 348 343 341 338 339 338 336 336 334 330 327 327 329 330 329 330 330 331 330 328 328 328 325 321 320 320 323 325 327 324 322 323 325 325 326 326 326 326 326 326 326 326 327 328 327 327 328 327 327 328 327 327 329 331 331 331 331 333 334 334 334
327 326 328 327 321 321 323 321 319 319 318 319 320 320 319 319 323 332 336 334 333 340 347 346 344 348 352 354 355 356 354 354 354 355 355 354 348 342 340 340 342 341 336 333 329 326 327 327 328 329 330 330 331 332 330 328 328 328 325 321 319 320 323 325 325 323 322 323 325 326 325 325 326 326 325 325 326 326 327 328 328 327 328 328 329 331 331 330 331 332 332 332 332 331 332 333 334
328 328 329 327 323 323 324 322 320 319 317 318 319 319 319 322 327 330 331 333 334 340 348 347 344 348 352 354 355 356 355 353 353 354 355 353 347 341 340 341 343 342 335 331 329 330 332 331 328 328 330 330 331 331 329 328 328 327 324 321 319 321 323 324 323 323 323 324 325 326 326 326 325 324 324 324 324 325 326 327 328 328 328 328 328 330 331 331 331 331 331 331 330 329 329 330 331
325 324 324 325 325 325 325 324 322 320 318 317 318 318 318 326 333 332 331 334 335 340 347 348 346 347 351 354 355 355 355 353 352 353 354 352 346 341 341 340 343 342 334 331 334 335 337 336 333 331 332 332 331 330 327 327 328 326 323 320 320 323 324 324 324 323 323 324 325 325 326 326 325 324 324 324 324 325 326 326 327 327 327 326 326 326 327 329 331 331 329 329 329 328 328 327 326
326 326 325 324 325 323 320 321 322 322 319 318 319 317 319 331 338 334 334 336 336 341 344 346 348 348 350 353 354 355 355 354 353 352 352 351 347 342 341 342 343 342 337 334 336 336 336 337 337 336 336 336 335 334 329 324 324 324 321 319 321 324 325 324 323 323 325 327 327 327 325 323 323 323 322 322 324 325 326 326 327 327 326 326 326 326 326 327 328 328 327 328 329 329 328 325 323
Wind_Speed
6 6 5 6 5 4 2 4 1 6 6 10 11 10 11 11 12 12 11 11 10 9 12 12 10 8 7 9 11 11 13 10 6 5 9 15 19 15 15 17 16 18 19 18 17 17 17 16 16 16 18 18 19 19 20 21 22 22 21 22 22 21 20 20 20 19 19 18 17 16 16 16 16 15 15 14 15 15 14 13 12 12 12 12 12 11 10 8 7 7 6 5 4 4 4 5 5
7 7 5 6 5 3 2 6 4 10 8 12 11 9 10 10 13 12 12 12 11 11 14 13 12 11 11 11 9 9 12 13 11 15 19 21 20 16 17 17 18 19 18 18 17 17 17 16 16 16 17 17 18 18 19 19 20 20 20 20 20 20 19 19 18 18 18 17 16 15 14 13 13 13 13 13 13 13 12 12 11 11 11 11 11 10 9 8 7 6 6 5 4 5 5 5 4
8 9 6 6 4 3 5 3 6 10 10 11 9 9 10 12 13 13 14 15 15 14 13 13 12 9 9 11 9 9 10 13 16 21 21 19 20 18 17 18 19 19 18 18 17 15 16 16 16 16 15 16 17 18 18 17 18 18 19 19 19 19 18 18 18 17 17 16 15 14 13 12 12 12 12 13 13 12 11 10 10 11 11 11 11 10 9 8 7 7 6 6 5 5 5 5 4
8 10 6 4 4 4 2 5 7 8 11 10 8 10 11 12 13 13 15 16 15 13 12 12 11 9 11 14 11 13 13 13 15 18 18 16 19 20 18 19 19 19 19 19 18 16 16 17 17 16 15 16 16 17 18 17 17 18 18 19 18 18 17 17 17 16 16 15 14 14 13 12 11 11 12 12 12 11 10 9 9 10 11 11 10 10 9 9 8 7 6 6 5 5 5 4 3
8 9 7 2 3 1 2 6 7 8 11 9 9 11 11 11 12 12 14 14 13 12 10 10 10 11 15 13 8 12 13 13 13 14 17 17 19 21 20 20 18 18 18 19 19 17 18 18 17 16 15 16 16 17 18 18 18 18 18 18 18 17 17 16 16 15 15 14 13 13 13 12 12 12 12 11 11 10 10 9 10 10 11 11 10 9 9 8 8 7 6 5 5 5 4 3 3
6 7 7 3 3 1 2 7 9 9 10 10 10 10 11 11 11 12 13 13 11 10 10 10 12 14 14 14 14 13 10 12 13 13 16 19 20 21 21 19 18 18 18 18 18 18 18 18 18 17 16 17 17 17 18 18 17 18 18 17 17 17 16 16 15 14 14 13 12 12 12 12 12 12 12 11 11 10 10 10 10 10 10 10 9 8 8 7 6 5 5 4 4 4 3 3 3
4 3 3 1 3 2 5 10 10 9 9 11 11 10 12 12 13 13 12 11 10 10 10 12 14 15 12 11 13 11 8 11 13 14 17 20 20 21 20 19 19 18 18 18 18 18 18 17 18 17 17 17 17 18 18 18 17 17 17 17 17 16 15 15 14 13 12 12 11 11 11 11 11 11 10 10 10 10 10 10 9 9 9 8 8 7 6 5 4 4 4 4 4 4 4 4 4
5 3 2 1 2 4 8 10 9 9 9 11 12 12 12 12 12 11 10 9 9 11 11 13 13 13 10 9 11 9 9 11 14 16 19 21 20 20 19 18 18 17 18 18 18 18 17 17 17 16 17 17 17 17 17 17 17 17 17 17 16 16 15 14 13 12 11 10 10 10 10 10 10 10 9 9 9 9 9 8 8 8 7 6 6 5 4 4 4 4 4 5 5 5 5 5 5
4 3 3 1 4 7 8 10 10 10 10 12 12 13 13 11 9 9 10 10 11 12 11 9 7 10 13 14 14 11 10 12 17 19 20 21 20 19 18 17 17 17 17 18 18 18 17 17 17 16 16 17 17 17 17 16 17 17 16 16 16 15 15 13 12 11 10 9 9 9 10 10 9 9 9 8 8 8 8 7 7 6 6 5 4 3 2 2 3 3 3 4 5 5 5 5 5
3 2 1 1 4 7 8 9 9 9 11 12 11 13 11 9 10 10 11 12 12 10 10 9 9 14 17 16 14 11 12 16 19 20 19 20 19 18 17 16 17 18 17 17 18 18 17 16 17 17 16 16 16 16 16 16 16 16 16 16 15 14 13 12 11 10 9 9 9 9 9 9 9 8 8 8 7 7 7 6 6 6 5 3 2 1 1 1 2 3 3 3 4 4 5 5 5
2 2 1 1 5 6 8 9 9 9 11 11 11 12 10 11 12 12 12 11 11 11 12 12 14 18 17 15 13 13 15 17 19 19 19 19 19 18 17 16 16 17 17 17 17 17 17 16 15 16 16 16 16 15 15 15 15 15 15 14 13 13 11 11 10 10 9 9 9 9 9 9 8 8 7 7 7 6 6 6 5 4 3 2 1 1 1 2 3 4 5 5 5 6 6 6 6
2 3 3 2 5 6 8 9 10 9 10 10 10 10 10 11 12 12 12 12 13 14 13 11 13 15 13 13 13 15 17 17 18 19 19 18 18 18 17 17 16 16 17 17 17 17 16 15 14 14 15 15 15 15 15 14 14 13 13 12 11 11 10 9 9 9 9 9 8 8 8 8 7 7 6 6 6 6 6 5 4 3 2 2 2 2 3 4 5 6 6 7 8 7 7 7 6
2 1 2 4 4 4 8 9 10 9 8 8 9 10 9 9 11 13 13 13 11 10 11 12 14 13 11 13 15 17 18 17 17 18 18 17 17 17 17 16 17 16 17 17 16 16 16 15 13 13 14 14 14 14 14 14 13 12 12 11 10 10 9 8 8 8 8 8 8 7 7 6 6 5 5 5 5 5 5 4 3 3 3 4 4 5 6 7 7 7 8 9 9 8 8 7 7
2 2 1 4 3 3 8 7 8 8 7 8 10 11 8 8 11 12 12 10 9 12 14 13 14 13 12 13 15 19 19 19 18 18 17 16 17 17 17 16 16 16 15 16 16 16 15 15 14 13 13 13 13 13 13 13 12 12 11 10 10 9 8 8 7 7 7 7 7 7 6 6 5 5 5 5 4 4 4 4 5 4 5 5 5 7 8 9 9 9 9 9 10 9 9 9 8
3 2 2 4 5 5 5 5 7 7 8 9 11 11 10 10 10 9 9 10 12 15 13 11 8 8 13 13 14 20 21 21 20 18 17 16 16 17 18 17 15 15 14 14 16 16 15 14 13 13 13 13 12 12 12 11 11 11 11 10 9 9 8 8 7 7 7 7 7 6 6 6 6 5 5 4 5 5 5 6 6 6 6 6 7 9 10 10 10 10 10 10 10 10 10 10 10
4 4 3 3 5 6 4 3 4 7 8 10 12 12 12 11 9 8 9 12 16 12 6 7 3 4 14 15 17 22 23 23 21 19 17 16 15 16 18 17 15 14 13 13 14 15 15 14 13 13 13 12 12 11 10 10 10 10 10 9 9 9 8 8 8 7 7 7 6 6 6 6 6 6 5 5 6 6 6 7 7 7 8 8 8 10 11 11 11 11 11 11 10 10 10 10 10
3 5 3 4 4 6 6 3 3 7 9 12 14 12 11 11 10 11 12 15 15 9 5 6 4 6 13 18 23 25 24 24 22 20 19 17 15 15 17 17 15 14 13 13 13 13 14 14 14 13 13 12 12 11 10 10 9 9 9 8 8 8 8 8 7 7 6 6 7 7 7 6 6 6 6 6 6 7 7 9 9 9 10 9 9 10 11 12 11 11 12 12 11 11 10 10 9
4 4 2 4 5 7 6 5 5 7 10 12 13 11 10 11 11 12 12 13 12 10 10 11 12 12 16 23 28 26 24 23 22 22 20 18 17 16 16 16 16 15 13 13 13 13 13 13 13 13 13 12 12 11 11 11 10 10 9 8 8 8 7 7 7 7 7 7 7 7 7 7 7 7 7 7 7 8 9 11 10 11 12 11 10 11 12 13 12 11 12 12 12 12 11 9 8
4 2 3 4 6 8 6 7 7 7 12 13 12 10 10 11 10 9 8 10 10 10 12 15 18 19 22 26 27 26 25 23 22 22 20 19 19 18 17 16 16 15 15 14 14 14 13 13 12 12 12 12 12 11 11 10 10 10 9 9 9 8 8 8 8 8 8 8 8 8 8 8 9 9 9 9 9 10 11 12 12 12 13 13 11 11 12 12 13 12 12 12 12 12 11 10 8
4 3 3 7 8 9 7 7 7 9 15 14 12 11 11 9 7 5 6 9 9 9 11 15 20 22 24 25 25 26 24 23 22 21 20 19 18 18 18 16 16 16 16 15 14 15 14 13 12 12 12 12 13 12 12 11 10 10 10 9 9 9 9 9 9 9 9 9 9 8 8 9 9 10 10 10 10 11 12 13 13 12 13 14 12 12 13 13 13 12 12 13 12 12 11 10 9
1 3 5 9 7 8 8 8 10 12 14 13 13 12 11 9 6 5 5 6 7 9 10 14 21 26 26 25 24 23 23 23 21 20 19 18 17 17 16 17 15 15 16 15 15 16 15 14 13 13 13 13 12 12 11 11 11 10 10 10 9 9 9 9 9 9 10 10 9 8 9 10 10 10 11 11 11 11 12 13 13 12 11 12 12 11 12 13 13 12 12 12 12 11 11 10 10
1 5 9 9 6 8 9 9 11 13 14 13 12 11 10 11 10 8 6 6 7 8 11 16 22 26 26 25 23 22 22 22 21 20 19 18 18 16 15 16 15 15 16 15 16 17 16 14 14 13 14 14 13 12 11 10 11 10 11 11 11 10 9 9 9 9 10 10 10 9 10 10 11 10 11 11 11 11 11 12 13 12 12 12 12 11 12 12 13 12 11 11 11 11 11 11 11
2 7 8 7 8 10 10 11 12 13 15 13 11 11 12 12 12 13 14 13 12 13 16 20 22 23 24 23 22 21 21 20 20 19 18 17 17 16 15 15 14 15 15 15 15 16 16 15 14 13 13 14 14 13 12 11 11 11 11 12 11 11 11 10 9 9 9 10 10 10 10 10 11 10 11 11 12 12 12 12 13 13 12 12 12 11 11 12 12 12 11 11 11 11 11 11 10
3 7 7 9 11 13 12 12 12 14 16 14 12 12 12 12 12 13 17 17 16 18 20 22 22 21 21 20 19 19 19 18 17 17 16 16 16 15 15 14 13 14 14 15 15 15 15 15 15 14 13 14 14 13 12 11 11 12 12 12 12 12 12 11 11 9 9 10 10 10 11 11 11 10 11 12 12 12 12 13 13 13 13 12 12 12 11 11 11 13 12 12 12 11 12 11 10
6 9 9 10 13 14 14 13 14 17 17 15 13 13 14 15 14 15 16 17 17 19 20 21 21 20 19 18 17 17 16 16 15 15 14 14 15 14 13 13 13 13 14 14 14 14 14 14 15 15 14 14 14 13 12 11 11 12 13 13 13 13 13 12 12 10 9 10 11 11 11 11 11 11 11 12 12 12 13 13 13 13 14 13 13 13 12 11 11 12 13 13 13 13 12 11 10
8 11 12 12 14 15 14 14 15 16 16 14 14 15 17 17 15 14 14 16 18 19 20 20 19 19 17 17 16 15 15 15 15 14 13 13 14 14 13 13 13 13 13 13 13 13 13 13 13 14 14 13 13 13 13 12 11 12 14 14 13 13 13 13 13 11 10 11 11 11 11 11 12 12 12 13 13 13 13 13 13 14 14 14 14 14 13 13 12 11 13 14 14 14 13 12 12
11 14 15 14 15 15 13 14 16 16 15 14 14 15 15 12 9 9 12 15 17 19 19 18 18 17 17 16 16 14 14 14 14 14 13 13 13 14 13 12 12 12 12 12 12 12 13 13 12 13 13 13 12 12 13 13 12 11 12 13 13 14 13 13 13 12 12 12 12 13 12 13 13 13 14 14 15 14 14 13 13 13 14 14 14 14 14 14 14 13 14 14 14 15 15 14 14
15 15 16 14 15 14 13 14 15 15 13 14 15 15 13 9 8 10 13 14 16 18 18 17 17 16 16 15 14 14 14 14 13 13 13 13 13 13 13 12 12 11 11 12 12 11 11 12 12 12 11 12 12 12 12 12 11 11 11 11 12 13 12 13 13 13 13 13 13 14 14 14 14 15 15 16 16 16 16 15 14 14 14 14 14 14 14 15 15 15 16 16 16 17 17 17 16
17 15 13 12 13 12 12 13 13 12 12 14 13 12 11 10 12 14 14 13 15 17 16 16 16 15 15 14 13 13 13 13 13 12 12 12 11 12 12 11 11 10 9 10 10 10 10 10 11 11 11 12 12 12 12 11 11 11 11 11 12 12 12 13 13 13 13 13 14 14 14 15 15 16 17 17 17 18 19 18 17 17 16 15 15 15 15 15 16 16 17 18 18 19 19 19 18
15 13 10 10 9 9 11 11 11 12 13 11 6 4 9 9 13 14 13 13 14 15 15 15 15 15 14 13 12 12 12 13 12 12 11 11 10 10 10 10 10 9 8 8 8 8 9 9 10 11 11 11 12 12 11 11 11 11 11 11 11 12 13 14 14 14 15 15 15 15 15 15 16 17 19 19 19 21 21 20 20 19 18 17 17 17 17 16 16 16 16 17 19 19 19 19 18
11 9 8 8 6 8 11 11 11 11 11 7 5 1 7 9 13 14 13 13 13 14 14 14 14 14 14 13 12 12 12 12 12 11 10 10 9 9 9 9 9 8 7 6 5 6 7 8 9 10 10 11 11 11 11 11 10 10 10 10 11 12 13 14 15 15 16 16 16 17 17 18 19 20 21 22 22 23 23 23 22 21 20 20 19 19 19 18 18 17 17 17 18 19 19 19 19
8 8 8 6 4 9 11 11 11 8 8 6 5 2 7 9 13 14 13 13 12 12 13 13 13 13 13 13 12 12 12 11 11 10 10 9 8 8 8 7 7 6 6 5 4 4 5 5 7 9 9 10 10 10 10 10 10 10 10 11 11 12 13 14 15 16 16 16 17 19 20 20 20 22 22 23 24 24 23 23 22 21 21 21 21 21 21 21 21 20 20 20 19 19 20 20 21
8 8 7 8 6 8 9 11 12 7 6 6 4 2 6 9 13 14 13 13 11 11 12 13 13 13 13 12 12 11 11 11 10 10 10 9 8 8 7 6 6 5 5 5 4 4 4 4 5 7 8 9 9 9 9 9 10 10 10 11 12 12 13 13 14 16 17 18 19 20 21 20 20 21 22 23 24 23 23 23 23 23 22 21 21 23 22 22 22 22 23 22 21 23 22 22 22
8 7 7 10 9 8 8 10 13 10 6 6 4 3 6 11 14 15 13 13 11 10 12 13 12 12 12 11 11 11 11 11 11 10 10 9 9 8 7 7 6 5 5 5 4 4 4 4 4 5 6 7 7 7 8 8 9 10 10 11 12 12 13 13 15 17 18 18 19 20 21 22 21 21 21 24 25 24 24 26 26 25 24 22 22 24 25 24 23 23 23 23 24 25 25 25 24
9 8 7 9 8 8 8 8 11 12 8 6 4 4 8 12 13 14 14 13 11 10 10 11 12 12 11 11 11 11 11 11 10 10 10 10 9 8 8 8 7 6 5 5 4 4 4 4 4 4 5 6 7 7 7 8 9 10 11 12 13 13 14 15 17 18 18 19 20 21 23 24 23 22 21 23 26 26 25 27 28 25 24 24 23 24 26 25 24 25 25 24 25 26 25 27 27
12 12 9 9 9 8 8 7 10 13 9 7 6 5 10 12 12 13 14 13 11 10 9 9 11 11 11 11 10 11 10 10 10 10 10 10 9 8 8 8 8 7 6 5 5 5 5 4 4 5 6 7 8 8 8 9 10 11 12 13 15 15 16 17 18 19 19 20 21 21 22 23 22 21 19 20 23 24 24 25 26 25 24 25 26 26 25 24 24 25 26 25 26 27 27 29 29
12 12 9 9 9 8 9 7 9 12 9 7 6 6 10 12 11 12 13 13 11 10 10 9 10 11 11 11 11 11 10 9 10 10 10 10 9 8 8 7 7 6 6 6 6 7 7 6 6 6 7 8 9 9 8 9 10 12 13 14 16 15 15 16 17 17 17 18 19 19 19 19 19 18 16 16 18 19 20 21 22 23 23 24 26 26 23 21 23 24 25 25 25 26 27 29 30
10 9 8 8 8 6 9 7 8 11 8 5 7 6 9 11 10 12 13 12 12 12 11 10 10 10 10 10 11 10 10 10 9 9 9 9 9 8 7 7 7 7 7 8 8 8 9 9 9 9 8 8 9 9 9 10 11 12 13 13 14 13 13 14 14 13 15 16 17 17 17 18 18 18 18 19 20 19 20 20 20 22 22 22 24 25 22 21 23 23 23 24 25 26 26 26 28
9 8 8 7 6 5 7 8 8 9 7 5 9 8 8 10 9 11 13 12 11 11 12 10 10 10 10 10 10 10 10 10 9 9 9 9 9 9 8 8 8 8 9 10 10 10 10 10 9 8 7 7 8 8 8 9 10 10 11 11 12 13 13 13 14 15 17 18 19 19 19 20 20 21 21 22 22 21 21 21 20 21 21 21 23 23 23 22 23 23 23 24 26 27 26 26 28
8 7 8 7 8 7 6 8 9 9 6 4 9 9 6 9 8 8 12 12 10 10 10 10 10 10 10 10 10 11 11 10 10 10 9 9 9 9 10 10 10 10 10 10 10 9 9 7 6 5 4 5 5 6 7 7 9 9 10 12 13 14 15 16 16 17 18 18 19 19 18 19 19 19 20 20 21 22 22 22 22 23 23 23 23 24 24 24 23 24 25 26 28 29 28 26 27
9 8 9 7 9 12 8 8 10 8 6 5 8 8 5 9 10 9 11 11 10 11 11 11 11 11 10 9 10 11 11 11 11 11 11 11 11 11 12 12 12 11 10 9 8 8 6 4 4 3 3 3 4 5 6 6 8 9 10 11 12 13 13 14 15 15 15 16 16 15 16 19 19 18 19 19 20 20 21 22 22 24 25 24 24 25 25 25 24 24 24 25 27 29 30 26 24
8 10 13 11 8 11 9 13 12 7 7 8 10 7 5 9 12 11 11 11 11 12 13 13 13 12 12 11 11 11 11 11 11 11 12 12 12 12 13 13 12 11 10 9 8 7 6 5 4 3 3 2 3 3 3 4 6 7 8 9 9 10 11 12 13 14 14 15 15 15 17 19 18 18 20 20 19 20 20 21 21 22 23 24 24 23 24 25 24 23 23 24 25 26 29 29 28
6 7 12 12 9 9 11 15 12 8 6 9 12 8 4 7 11 13 13 13 13 13 14 16 15 15 15 15 14 13 12 12 11 12 12 13 13 13 14 14 12 11 11 10 9 8 7 6 5 3 3 2 1 2 3 5 6 7 9 9 10 11 11 12 14 16 16 16 16 15 16 16 16 18 19 18 19 20 20 19 19 19 20 22 22 20 21 23 22 22 21 22 23 23 26 30 30
1 3 6 9 8 10 13 14 11 6 3 7 11 8 5 4 7 12 15 14 14 15 14 16 18 18 17 17 16 15 14 14 13 13 13 14 14 14 14 13 12 12 12 11 10 10 9 7 5 3 2 2 2 4 6 8 9 10 11 12 13 13 12 13 15 16 17 16 15 13 13 14 15 16 16 17 18 18 18 17 16 17 18 20 19 17 18 19 20 21 20 21 22 21 24 26 26
2 5 5 6 7 10 11 11 8 4 4 6 8 7 6 6 4 9 14 14 15 17 17 17 20 20 19 19 18 17 16 15 15 14 14 15 15 14 14 14 14 14 13 12 12 11 9 7 5 3 1 1 3 6 8 10 11 12 13 14 15 14 14 15 14 14 14 13 12 11 11 11 12 12 13 14 15 15 15 14 14 15 16 17 17 16 16 17 19 20 20 21 22 22 23 23 24
4 6 7 7 5 6 7 7 4 3 6 8 9 9 7 7 4 7 10 12 14 16 16 18 22 22 21 21 20 19 17 16 16 15 15 16 15 14 14 15 15 15 14 14 14 12 8 7 6 4 2 2 4 7 10 12 13 14 14 15 15 15 16 17 15 12 12 12 12 12 11 12 12 12 13 14 13 13 14 13 14 14 14 14 15 15 15 17 18 19 20 21 22 23 22 21 23
10 9 8 8 5 4 3 3 2 4 8 8 9 11 9 8 5 6 8 11 13 13 13 16 21 23 22 21 21 20 19 18 17 17 16 16 16 15 16 16 16 16 15 16 15 11 8 7 7 6 4 4 6 8 11 12 13 14 14 14 15 16 16 17 15 14 14 15 16 16 16 16 15 15 15 15 14 13 14 14 14 14 14 13 13 13 14 15 15 16 17 19 19 21 22 21 22
11 7 7 6 4 4 4 3 4 6 7 5 4 8 10 9 6 4 5 9 11 10 11 14 20 24 24 23 22 21 21 20 19 18 18 17 18 18 18 18 18 17 17 17 15 11 9 8 8 7 5 5 7 9 11 13 13 14 13 14 14 15 15 15 14 14 15 16 17 17 18 17 16 16 16 15 15 15 14 15 14 15 15 14 13 14 14 14 14 15 15 16 17 18 20 20 21
8 6 8 6 4 5 6 5 6 7 4 3 2 6 9 8 9 9 7 7 9 8 8 12 17 24 25 25 24 22 22 21 20 20 20 20 21 22 21 21 20 19 18 18 16 12 9 8 8 7 6 7 9 11 12 13 14 14 13 13 14 14 13 12 12 12 13 15 16 17 18 17 16 17 15 15 16 15 14 14 15 15 16 15 15 15 15 15 16 16 16 16 17 17 19 20 20
9 8 8 7 5 6 7 6 6 7 4 4 4 4 6 8 8 9 8 6 7 8 9 10 13 20 24 25 25 23 22 22 21 21 21 21 22 23 24 23 22 20 20 19 16 12 10 9 8 8 8 9 11 12 13 14 14 13 13 13 13 12 11 10 11 11 12 14 15 16 17 17 17 17 16 15 15 14 13 13 14 15 15 15 15 15 15 15 16 16 16 17 18 18 19 20 22
10 8 8 8 6 6 6 5 6 8 4 5 5 4 6 6 1 2 0 1 2 7 9 9 9 14 20 24 26 25 24 23 22 22 22 22 23 24 25 25 24 21 20 19 16 13 11 9 8 8 9 10 11 12 13 14 13 13 13 13 12 11 10 10 10 11 12 13 14 15 16 16 16 17 16 15 14 13 13 13 14 15 15 15 15 15 16 16 16 16 16 18 18 18 19 21 24
8 6 8 7 6 6 4 3 4 5 3 4 5 4 5 4 2 5 4 3 4 6 8 10 10 12 16 21 25 26 25 23 22 22 23 23 24 25 25 25 24 21 20 19 17 14 11 9 9 9 10 11 12 12 13 13 13 13 12 12 12 11 10 9 10 10 11 12 13 14 15 15 15 16 15 15 15 14 13 13 14 14 14 15 15 16 16 17 17 18 18 18 17 16 17 20 23
6 6 7 2 2 4 4 2 1 4 7 4 4 6 6 4 4 6 6 5 6 8 9 12 12 13 16 19 23 25 25 24 23 23 23 25 26 26 25 24 23 21 20 19 17 13 10 9 10 11 12 12 12 12 12 12 13 13 12 12 12 11 10 9 9 9 10 11 12 13 13 13 14 14 15 15 15 15 15 14 13 12 13 14 14 16 17 18 18 18 18 18 17 16 16 19 22
4 7 7 5 2 3 4 4 3 5 8 3 4 8 7 5 4 4 7 7 8 8 10 11 13 15 17 18 21 24 25 24 23 23 23 25 28 29 26 23 21 21 20 18 15 12 10 11 11 12 12 12 12 12 12 12 13 13 12 12 12 11 10 9 9 9 9 10 10 11 11 11 12 13 14 14 15 15 14 13 13 12 12 14 15 16 18 19 18 17 16 17 18 17 17 19 21
5 3 5 6 4 5 5 5 5 5 7 4 5 6 7 6 3 3 6 6 5 7 9 10 13 16 18 18 20 22 24 24 23 23 23 25 29 29 26 22 20 20 19 16 14 12 12 12 12 12 12 11 12 12 12 13 13 13 12 12 12 11 10 9 9 9 9 9 9 10 10 10 10 11 13 14 15 15 14 13 12 13 13 14 15 15 15 16 16 15 15 15 17 18 19 20 21
4 3 5 6 5 3 4 5 5 5 6 6 3 4 5 5 1 2 1 3 4 5 7 9 12 16 17 18 20 22 25 25 24 25 24 26 29 28 25 22 19 20 19 16 14 13 12 12 12 11 11 11 12 12 13 13 13 13 13 12 12 11 9 9 8 8 8 8 9 9 10 10 10 11 12 14 15 15 15 14 13 13 14 15 16 15 14 14 15 15 15 15 17 18 19 20 21
9 7 8 8 4 2 3 4 4 5 6 5 4 5 3 3 4 1 2 2 3 3 5 7 10 13 16 17 19 21 24 25 25 25 25 26 26 25 23 21 19 20 19 15 14 13 12 12 11 10 10 10 11 12 12 13 13 14 13 12 12 11 9 8 8 8 8 8 9 10 10 10 11 11 12 13 14 15 15 15 15 15 16 17 18 18 16 15 14 15 15 16 18 18 19 20 23
10 10 9 10 7 5 5 5 4 3 5 4 4 6 2 5 5 2 1 1 2 3 4 5 7 10 14 16 18 20 23 25 25 25 25 25 25 24 22 21 20 20 18 16 15 14 12 12 11 10 10 9 9 11 12 13 13 13 13 12 12 11 9 9 8 8 8 9 10 11 12 11 11 12 13 13 14 14 15 16 16 16 17 18 18 17 16 15 15 15 16 17 17 18 20 22 23
Wind_Direction
54 50 41 44 42 18 351 263 138 85 79 81 78 80 77 87 98 99 101 107 96 84 92 94 92 78 78 85 100 89 39 38 40 59 103 117 127 124 129 135 136 144 140 136 139 136 135 135 132 126 119 119 121 122 125 128 131 132 131 131 131 131 130 130 130 130 131 132 132 131 131 132 132 131 130 127 127 126 121 118 120 126 130 133 134 137 138 136 131 126 124 119 110 97 93 93 93
46 38 26 34 42 16 282 247 96 86 87 81 76 83 97 99 92 91 90 92 92 100 103 95 93 87 85 84 102 105 49 42 68 86 102 118 121 119 130 135 137 145 146 137 136 137 138 140 138 132 124 123 125 126 126 128 131 132 132 134 134 134 133 133 133 132 132 132 131 132 131 132 131 130 129 128 129 128 123 118 119 124 127 130 131 133 130 128 127 124 121 116 106 100 96 91 85
43 34 22 18 18 290 276 253 88 85 85 83 83 85 96 94 88 87 85 92 101 107 106 99 94 82 92 88 73 88 78 72 91 102 110 122 121 122 132 136 139 143 147 141 135 138 140 141 140 136 129 127 129 128 128 130 132 133 134 137 139 137 136 136 136 135 134 133 134 134 134 133 129 127 127 129 130 128 125 120 121 124 125 127 128 128 124 123 121 117 115 109 103 94 89 82 74
42 34 29 349 306 258 283 78 79 79 84 85 86 85 88 87 88 90 93 100 108 111 106 102 85 57 76 87 82 86 92 89 96 109 116 127 127 129 133 134 137 139 145 146 142 142 143 142 141 139 133 131 133 131 132 134 137 140 140 141 142 139 138 138 138 138 137 136 135 134 135 135 130 126 125 128 130 130 129 124 124 126 126 125 125 124 122 120 115 112 107 100 93 82 76 67 59
35 28 40 15 294 312 56 75 72 68 75 86 91 89 91 90 93 95 101 105 109 107 102 101 87 78 72 66 80 91 98 101 100 109 115 125 130 132 132 130 132 136 141 145 144 142 141 141 140 138 134 137 138 135 135 136 137 142 144 143 143 141 140 140 139 138 137 136 135 135 135 135 134 132 131 132 132 133 131 127 128 129 128 125 125 124 122 117 112 107 99 91 79 69 61 46 33
23 359 25 30 287 287 86 83 80 70 62 80 94 92 96 98 102 103 105 104 99 95 97 101 101 103 82 63 73 85 105 113 112 113 116 126 132 133 131 129 130 133 138 142 141 139 140 140 138 136 136 140 143 141 138 135 135 140 144 143 143 141 140 139 138 135 134 134 134 136 137 137 136 135 136 136 135 135 132 131 132 133 133 129 126 123 119 112 105 95 82 71 59 49 32 18 8
19 333 352 330 252 216 90 83 81 78 63 74 93 99 102 106 112 115 113 108 100 94 96 102 109 107 97 91 79 74 98 113 119 121 127 133 134 135 132 130 131 133 137 141 141 138 139 139 137 136 138 141 144 143 138 136 137 140 143 143 142 139 138 138 135 134 133 134 136 137 138 138 136 134 134 134 135 134 135 137 138 139 137 132 125 118 108 93 77 60 42 28 26 21 8 355 346
20 354 256 259 124 112 83 81 78 80 79 80 90 100 109 116 121 122 117 110 105 106 107 112 114 100 97 109 89 83 100 110 123 126 133 135 134 136 133 132 131 131 135 139 138 135 136 138 136 135 137 138 139 140 137 137 138 140 142 142 142 140 140 139 136 136 135 136 139 139 138 137 135 134 132 132 133 133 137 139 139 139 136 129 120 107 85 63 41 23 8 1 359 358 352 338 331
349 311 256 218 97 96 90 89 87 87 91 91 93 105 115 119 122 121 112 104 108 114 113 113 114 105 102 100 96 103 109 116 126 129 134 134 136 137 134 134 133 133 135 136 135 132 134 136 135 135 137 137 137 138 137 137 138 140 141 144 145 144 144 142 140 139 138 140 140 140 139 138 137 136 134 133 134 135 137 136 136 137 134 125 112 94 59 27 10 359 346 347 346 345 338 326 320
294 277 290 137 102 98 97 94 96 98 97 97 101 111 117 116 116 116 112 110 114 114 104 98 107 116 112 103 102 110 121 129 130 132 137 137 138 137 136 137 136 136 136 137 136 134 136 136 136 137 138 139 138 138 138 139 140 142 144 146 147 146 146 145 143 142 143 143 141 141 142 142 142 140 138 138 138 139 137 135 135 136 135 130 127 126 353 329 311 293 295 308 312 318 316 310 304
265 144 258 160 102 93 95 97 100 102 104 105 105 109 110 108 112 112 111 112 112 113 114 110 108 114 111 102 103 114 129 135 134 136 142 142 140 138 139 137 137 137 137 140 139 137 138 138 139 138 139 140 140 141 142 142 144 145 146 148 147 148 149 150 150 150 149 147 146 146 148 149 147 145 143 143 145 146 142 138 138 142 152 162 188 234 270 273 271 278 293 296 296 295 294 295 296
272 127 199 135 89 91 97 103 104 105 111 111 111 111 108 111 115 109 108 115 118 121 126 122 119 120 111 103 112 127 135 138 138 140 145 146 142 141 140 139 138 137 140 143 141 140 141 142 142 141 142 142 143 144 145 146 148 148 149 150 150 152 155 157 159 158 157 156 155 155 157 156 153 152 151 152 152 153 152 150 158 177 196 212 235 254 257 260 266 280 293 293 292 293 293 295 296
297 106 191 108 86 104 102 104 110 117 119 111 116 119 117 114 111 109 115 120 115 116 120 126 133 123 105 109 124 137 141 144 144 143 146 147 145 143 141 142 140 140 144 147 146 145 144 145 145 146 147 146 147 148 149 150 151 153 153 154 154 157 160 163 166 168 166 165 166 167 168 166 165 166 167 170 170 172 178 187 207 220 226 235 247 259 264 272 282 286 289 288 287 287 289 292 290
320 344 281 121 125 114 102 113 125 124 113 111 121 125 117 99 104 113 120 115 90 99 110 124 136 120 113 123 136 147 149 149 149 146 147 147 147 144 142 145 145 145 148 151 152 150 148 148 149 151 150 150 152 153 153 154 156 158 160 161 162 163 166 169 173 176 177 178 180 178 178 182 183 187 192 196 201 207 214 225 237 240 240 252 267 275 281 287 291 292 291 287 286 285 284 286 287
318 328 278 137 133 122 102 111 117 108 111 125 128 123 108 95 107 103 93 100 100 109 114 123 140 135 143 151 151 154 152 151 151 148 147 148 149 147 146 148 150 150 150 155 156 153 152 151 154 154 153 156 158 157 159 161 162 165 168 169 172 173 176 179 181 185 187 189 193 193 194 200 205 211 217 220 225 230 236 244 247 246 251 267 280 282 284 287 288 291 291 284 283 285 284 284 285
301 299 250 136 126 124 108 115 113 106 117 130 130 124 111 99 98 80 84 117 119 121 119 117 152 161 150 154 150 150 150 150 151 147 148 148 148 149 148 150 154 154 153 158 158 156 156 157 160 160 160 163 163 164 166 170 171 173 175 178 181 183 187 189 191 193 196 200 203 207 208 211 220 226 231 233 238 241 245 256 256 253 262 272 278 281 283 285 286 287 286 282 280 280 281 281 281
276 267 219 118 107 113 120 143 110 105 118 128 134 129 117 108 96 89 103 122 121 113 99 94 106 125 135 142 143 146 148 150 151 149 150 148 150 151 150 154 159 159 160 162 163 161 161 164 166 165 168 167 167 170 170 174 179 179 180 185 189 192 196 197 200 204 207 213 215 219 220 220 228 236 241 240 244 252 257 266 268 266 271 275 276 280 283 284 286 285 282 283 281 280 281 280 280
241 243 166 98 89 100 115 118 92 111 125 128 136 131 122 122 116 115 113 116 115 102 101 101 98 104 119 132 139 144 148 151 153 152 153 152 154 156 157 162 164 164 165 166 169 170 170 172 172 170 171 171 171 174 176 180 184 183 185 191 196 198 205 207 207 212 216 221 227 228 230 232 235 241 248 248 250 257 263 266 269 271 275 276 276 278 280 284 286 285 283 284 284 285 287 285 284
239 255 99 80 82 87 86 101 92 102 120 123 132 126 117 122 128 139 126 119 121 106 111 114 107 111 122 130 139 144 149 154 156 157 158 158 159 161 164 168 169 170 170 170 173 176 176 177 176 174 176 177 176 178 182 186 187 188 191 195 200 203 209 213 212 218 221 225 232 234 238 241 242 246 250 251 254 258 264 268 270 271 275 279 280 278 278 280 284 285 285 285 284 286 288 288 287
234 266 96 87 92 92 72 87 87 92 114 121 121 113 107 115 128 143 134 125 123 114 123 128 124 128 132 136 142 146 151 156 159 162 162 162 164 165 166 170 173 176 174 173 177 181 181 181 178 178 186 185 181 184 187 190 192 193 196 201 205 209 214 218 219 224 226 229 233 236 242 247 250 253 256 257 259 263 268 274 276 274 276 281 283 281 279 278 281 284 284 285 284 285 286 289 289
233 313 78 95 106 97 75 83 96 103 114 116 116 114 105 102 95 108 143 137 112 109 126 138 138 138 140 142 146 150 154 157 161 166 167 167 167 168 171 173 176 179 176 177 183 186 184 183 182 185 193 193 190 193 193 197 197 196 202 207 211 215 221 225 229 232 234 236 237 242 248 253 258 257 261 264 265 268 271 277 281 281 278 279 281 282 280 278 278 280 280 283 284 283 284 287 289
96 54 74 97 108 96 87 92 101 109 114 115 116 112 105 98 80 66 68 80 77 90 119 136 140 142 144 146 149 153 157 160 165 169 170 172 170 171 173 174 178 181 180 181 186 188 187 186 185 189 196 197 200 200 201 207 207 205 211 215 218 222 226 229 235 240 243 244 243 248 253 257 263 263 265 268 270 271 271 275 278 279 277 275 277 278 279 278 276 275 274 277 281 281 282 284 285
132 87 84 96 102 100 100 105 112 117 114 111 109 108 112 103 81 68 66 72 77 91 116 130 136 141 144 147 150 154 160 164 166 171 174 174 174 174 175 177 180 183 184 186 187 190 190 189 187 192 198 200 204 206 207 212 215 217 220 224 225 227 228 231 236 242 247 251 250 253 256 259 264 266 266 268 272 273 271 272 273 275 276 275 275 272 273 277 278 277 274 273 275 278 280 280 280
133 108 100 97 101 105 107 114 120 114 106 106 110 112 113 104 90 80 78 83 91 102 117 127 133 140 144 148 153 156 159 162 165 170 173 176 178 177 178 180 182 187 190 191 190 190 193 193 192 194 200 205 207 211 214 217 223 225 228 232 233 232 231 233 237 242 249 253 254 254 257 259 260 263 265 268 273 274 273 272 272 273 274 273 272 271 269 269 273 277 278 275 274 274 276 278 279
121 119 112 107 106 109 114 120 119 110 106 109 111 103 98 101 95 85 86 93 101 109 120 127 133 140 145 149 152 155 157 159 162 165 170 176 178 178 180 183 187 193 194 196 194 192 195 196 197 198 202 208 210 213 217 220 229 231 234 238 240 239 237 238 241 244 249 252 254 254 256 259 260 261 264 268 272 274 276 275 273 271 271 271 269 272 272 267 266 273 278 276 274 272 271 273 273
121 128 124 119 113 117 122 125 120 111 109 112 111 105 103 107 100 87 91 102 109 115 121 128 136 140 144 149 152 156 157 158 161 163 168 170 175 179 181 183 188 195 197 198 196 196 200 199 201 205 206 211 213 216 220 224 230 234 238 243 246 248 246 244 243 246 250 251 254 255 255 258 260 261 263 267 272 275 276 276 276 273 271 271 270 269 270 270 268 266 271 273 272 271 270 268 266
128 131 123 120 118 122 126 124 119 111 110 115 114 109 112 122 116 101 106 113 118 121 124 129 135 138 142 146 150 156 157 160 162 162 166 167 173 178 180 183 187 193 196 197 198 200 204 203 204 208 210 213 215 219 222 226 232 237 242 246 249 254 254 250 246 248 252 253 255 257 258 262 264 266 267 269 274 277 276 274 275 273 272 272 271 271 271 272 272 268 267 267 266 266 266 265 265
133 128 120 121 122 125 128 125 121 116 114 118 117 111 112 116 111 117 124 127 125 124 128 132 133 135 139 143 148 155 158 161 163 164 168 168 170 175 177 182 183 187 193 196 199 201 203 206 208 210 212 216 220 222 225 230 236 241 244 246 250 254 255 254 251 251 254 256 258 260 262 265 268 270 272 273 274 275 274 272 270 268 269 269 269 272 274 273 272 272 272 271 268 266 264 263 264
140 135 126 126 128 129 135 136 130 128 127 128 131 119 106 101 108 124 135 134 130 128 132 134 133 136 140 144 149 157 162 163 165 165 167 166 166 169 171 174 177 179 187 194 199 200 200 204 211 215 215 218 223 223 227 233 238 244 246 249 253 253 253 254 253 253 256 259 260 262 264 266 270 272 275 276 277 277 275 273 271 267 266 266 266 270 274 274 272 272 273 274 273 270 267 264 265
148 148 140 140 143 139 145 148 140 139 138 141 168 118 97 107 120 133 143 142 138 134 134 136 137 141 145 151 154 159 165 165 165 164 164 165 161 163 164 168 172 171 175 184 192 196 195 202 210 216 217 221 226 227 230 234 239 247 252 254 256 254 254 253 254 256 259 261 265 267 268 270 273 275 278 279 279 278 276 274 272 269 266 264 265 269 272 273 272 270 269 270 272 273 270 265 263
154 158 160 164 165 150 158 162 155 155 152 171 252 99 106 127 134 140 151 152 148 139 139 140 140 144 149 154 156 159 165 169 169 166 166 165 159 160 163 166 168 169 171 171 171 177 188 203 208 212 217 222 227 228 229 234 238 244 249 253 255 255 255 255 256 259 263 266 269 270 271 272 275 278 280 281 280 278 276 274 273 272 271 269 266 266 268 267 267 266 265 264 266 269 268 266 261
163 175 173 180 180 150 162 173 174 170 160 203 271 82 113 136 142 146 155 160 158 145 142 146 146 148 151 155 158 158 163 170 173 173 172 171 167 164 164 166 164 166 175 178 165 158 172 191 200 210 216 217 221 222 227 234 237 240 244 250 254 256 257 258 260 262 265 267 269 271 272 273 274 276 277 278 279 279 277 275 275 274 272 271 269 267 266 264 262 261 260 261 264 264 263 263 262
181 201 172 174 192 158 163 182 190 188 158 190 240 118 122 139 149 151 156 166 168 153 146 151 153 153 155 158 162 162 164 171 175 177 176 177 178 172 169 173 174 172 179 187 181 159 162 174 184 202 210 213 218 219 225 233 239 243 246 252 256 257 259 262 264 265 265 266 267 268 269 270 272 274 276 279 281 283 282 279 277 275 271 271 273 273 270 266 262 260 258 258 261 263 262 260 260
187 213 175 177 192 166 168 181 186 194 189 191 202 163 125 135 152 155 159 168 174 166 153 155 157 158 163 166 168 169 171 175 177 180 181 185 187 181 179 181 181 179 179 181 180 170 170 180 187 200 209 215 221 223 230 237 245 251 253 257 261 263 266 265 265 267 266 266 267 268 272 275 277 275 277 282 284 286 284 281 280 279 276 273 272 274 273 269 264 262 258 253 253 256 260 261 257
189 200 181 180 188 180 179 177 180 190 198 199 192 159 132 137 152 158 162 169 177 177 164 160 162 164 168 174 178 177 178 181 182 186 188 193 193 190 192 194 192 189 187 184 182 186 187 194 213 226 229 228 232 237 242 248 253 259 264 268 270 274 277 274 272 272 273 272 273 276 280 283 282 278 276 280 284 285 282 281 282 280 276 275 275 274 271 269 267 265 261 256 251 250 254 258 255
194 194 189 184 187 192 185 171 175 185 195 203 196 167 149 150 154 160 166 169 178 184 178 172 169 170 174 179 183 183 186 186 182 185 188 193 198 199 200 203 206 204 205 200 195 204 207 215 232 245 251 247 246 247 251 258 261 267 272 273 276 279 279 277 276 276 277 277 278 281 283 284 283 282 280 278 279 280 279 280 281 279 278 278 275 270 264 265 270 269 266 262 255 252 251 252 251
198 198 198 194 194 190 178 169 172 185 201 201 195 179 159 158 157 161 167 169 179 187 186 187 180 176 177 180 183 184 188 185 184 195 201 206 209 212 215 215 218 219 220 215 209 212 214 224 236 243 252 252 251 251 253 256 259 266 271 275 281 286 288 289 288 284 282 283 286 289 288 288 288 289 289 286 283 281 280 281 280 279 278 274 272 269 263 263 268 269 268 265 259 255 252 250 250
202 203 205 206 207 182 163 172 175 187 208 187 184 197 165 160 161 161 169 176 182 186 189 194 191 185 183 183 185 183 182 183 191 210 219 219 217 222 229 228 227 223 221 219 219 224 223 228 237 241 250 256 257 257 256 258 258 263 271 277 286 292 296 297 294 288 286 289 292 294 292 290 291 290 290 292 292 290 287 285 282 279 275 272 277 280 278 275 272 266 263 263 260 258 254 251 250
199 201 207 212 196 145 144 171 174 184 214 186 180 202 171 160 167 166 177 185 183 187 193 197 196 193 191 189 189 185 184 186 194 207 216 216 216 223 227 222 218 213 213 216 219 225 226 230 239 247 257 264 269 270 270 272 270 273 280 283 287 290 292 291 290 288 289 289 289 291 292 290 290 290 290 291 292 291 289 287 283 279 275 274 278 282 283 281 277 269 264 262 261 262 258 253 251
209 206 209 212 180 174 182 175 173 185 220 216 184 198 175 161 176 179 186 190 184 188 196 200 203 205 200 195 194 191 191 193 194 198 201 203 207 212 213 208 205 204 208 213 215 220 224 229 241 253 263 264 268 277 282 283 283 285 287 287 287 288 290 291 293 296 298 298 299 302 301 296 294 293 293 292 290 289 288 286 284 280 277 275 273 275 278 278 275 274 272 268 264 263 260 255 254
216 220 226 228 185 204 220 164 161 181 205 216 190 197 196 182 192 190 187 192 191 192 197 203 206 209 209 203 198 196 197 198 196 194 193 195 198 200 202 199 198 201 204 206 207 211 211 212 223 228 232 240 249 264 273 280 286 290 293 298 300 299 302 304 303 305 305 305 306 306 299 296 298 297 294 292 290 289 287 285 284 282 280 278 275 273 274 275 276 275 273 269 266 264 262 258 254
205 214 230 245 223 220 205 155 160 188 201 201 197 216 217 190 197 195 184 191 196 194 199 206 207 206 211 211 206 201 199 198 196 194 191 189 191 194 196 194 195 198 199 201 200 195 190 188 191 187 180 205 234 258 280 293 301 309 315 318 316 312 312 312 309 308 307 305 305 303 299 299 302 299 296 295 292 289 287 285 284 283 283 283 281 276 271 273 277 278 275 268 264 263 265 262 255
204 195 215 236 246 224 184 167 183 217 210 189 197 231 235 184 200 202 190 192 198 199 203 208 206 206 210 212 210 204 199 197 194 192 189 185 187 190 193 194 193 194 197 204 201 188 182 178 165 146 131 127 81 15 353 344 339 336 335 330 324 320 315 313 314 315 315 312 312 311 310 309 308 303 300 298 295 292 289 288 286 283 282 282 283 280 275 276 278 280 279 274 269 266 267 265 258
219 98 185 207 222 206 186 189 206 217 179 172 196 226 249 226 212 198 192 194 198 201 207 210 207 206 209 209 209 204 200 196 190 188 187 184 185 187 191 194 188 191 201 205 195 183 174 167 157 139 113 83 33 9 0 353 347 341 339 335 333 330 324 321 321 322 322 319 317 318 316 315 315 313 310 307 304 303 299 295 290 284 282 283 285 284 282 283 281 281 279 278 278 274 273 272 263
50 74 136 165 198 197 191 203 206 187 188 198 199 211 244 246 201 180 193 200 206 207 207 208 208 206 206 207 207 204 200 196 192 189 187 184 184 186 189 191 189 196 206 200 187 179 171 169 172 170 155 5 352 353 350 344 340 338 336 335 336 332 326 326 324 320 320 318 318 320 318 318 320 319 320 318 313 312 309 303 296 291 289 289 290 288 286 287 286 285 283 282 282 279 277 277 270
109 116 118 120 160 179 190 214 206 189 223 228 204 201 242 252 192 174 196 207 213 214 210 208 206 205 205 206 205 202 198 196 194 191 188 186 184 185 188 194 199 204 204 194 185 180 176 181 192 201 223 301 332 339 338 333 332 332 331 333 335 331 327 327 326 321 319 320 321 321 319 320 324 325 329 329 324 318 315 311 307 307 305 299 295 294 292 295 295 292 290 290 289 284 278 274 270
138 139 126 124 134 149 185 221 209 216 231 233 207 200 233 261 227 186 198 217 221 218 213 207 205 205 204 204 203 200 197 195 193 190 188 188 185 185 193 202 207 206 199 192 188 187 190 200 209 214 237 290 315 322 323 321 321 322 324 330 330 327 322 320 320 319 316 317 318 319 321 324 327 330 331 330 327 321 316 316 315 314 314 310 305 303 299 300 301 296 294 295 294 288 282 278 275
159 159 156 150 137 163 187 181 198 231 231 220 200 203 223 250 258 218 197 217 227 228 219 207 204 204 202 202 202 199 196 194 192 189 187 186 186 190 198 205 208 204 198 195 194 197 207 215 218 223 247 282 297 304 307 308 310 312 316 322 320 317 313 309 308 309 308 311 313 318 323 325 328 330 330 328 323 319 317 317 315 314 315 315 311 307 304 302 299 295 293 295 295 291 287 284 281
187 185 180 186 177 185 205 195 204 234 222 145 158 211 226 245 259 263 254 226 220 226 226 216 209 205 200 198 199 197 195 195 192 190 187 187 192 197 200 204 207 206 202 200 202 209 218 221 222 233 254 274 286 292 297 301 303 305 310 316 314 311 308 303 302 305 307 311 314 319 324 324 326 329 330 328 324 323 321 316 314 314 316 317 315 310 308 307 302 298 293 291 290 290 290 289 285
200 194 192 207 199 198 220 214 219 239 210 130 147 205 244 256 251 254 263 249 219 210 213 220 216 210 204 197 195 195 195 195 192 191 190 190 195 199 202 205 207 206 206 206 209 216 223 224 228 243 258 270 279 285 292 298 299 302 307 312 312 311 308 302 301 304 307 310 313 317 319 320 322 326 328 327 326 328 326 318 316 318 320 322 322 319 318 315 311 306 299 294 293 290 289 288 285
202 202 205 219 220 220 231 230 236 242 198 133 151 194 244 258 194 133 236 0 206 208 205 207 211 212 207 199 195 194 193 194 192 192 192 192 194 197 201 207 207 207 209 209 213 220 224 228 234 246 258 267 274 281 288 294 296 299 304 308 311 311 307 300 300 304 306 309 312 315 316 317 318 321 323 324 325 328 326 322 320 322 324 324 324 325 324 322 320 315 309 306 304 297 291 289 289
193 209 219 227 239 232 245 301 288 280 266 173 180 217 246 254 127 142 163 145 168 199 204 202 203 203 202 200 198 195 192 192 191 191 192 190 193 195 198 205 206 207 208 208 215 223 225 232 238 242 253 260 268 277 286 291 293 295 302 308 310 311 308 302 301 304 308 313 315 316 316 315 315 317 320 323 325 325 324 322 321 322 323 323 324 324 323 322 320 318 315 312 308 299 293 291 291
169 204 217 212 331 260 241 253 315 290 274 228 186 234 240 235 226 186 183 205 203 201 207 207 204 199 197 200 201 196 191 190 190 192 191 189 193 195 196 200 201 202 206 210 217 223 225 233 236 238 247 256 265 277 285 289 290 294 302 309 310 309 305 300 297 299 309 317 321 321 317 315 316 317 320 323 324 325 324 322 322 321 322 324 325 323 321 320 318 316 314 312 309 303 297 294 291
192 207 188 130 52 274 250 247 212 228 253 235 192 243 248 232 237 175 175 219 226 211 213 212 203 200 200 200 200 196 190 188 189 192 190 189 195 198 195 194 195 198 204 210 216 220 224 229 231 237 247 257 268 279 285 288 290 294 302 307 307 307 304 299 297 301 313 323 328 329 324 320 320 319 322 324 324 325 325 323 322 322 322 324 324 322 321 320 318 316 313 311 310 306 300 296 295
261 247 161 167 217 212 202 239 248 239 258 258 203 231 253 240 229 145 174 219 241 215 207 212 207 202 202 199 195 193 189 186 188 192 190 190 196 199 196 191 191 197 204 209 215 219 222 225 228 237 248 260 272 281 284 286 289 292 299 304 303 304 304 300 299 305 319 330 334 334 331 328 327 325 326 327 325 325 325 322 321 321 321 322 321 319 318 316 315 315 313 310 309 308 304 299 296
244 264 189 206 247 235 191 220 255 263 272 278 227 208 237 225 164 63 204 248 270 222 198 211 214 207 203 198 192 191 189 186 188 191 190 191 196 198 195 191 189 196 202 206 213 214 214 222 230 238 250 265 276 281 283 284 286 292 297 301 301 301 302 300 299 307 320 329 329 327 327 329 330 329 328 329 327 326 325 321 317 317 318 321 323 321 315 313 313 313 313 313 314 314 313 310 307
197 214 203 200 207 239 230 219 245 270 274 281 270 253 246 117 106 90 275 270 264 226 207 216 217 210 204 198 193 191 189 189 190 191 191 192 193 194 194 192 191 196 201 201 205 206 204 216 231 241 253 269 276 278 280 281 283 290 296 298 297 297 299 298 297 305 314 319 320 319 320 324 326 326 326 327 327 325 323 319 316 314 314 319 326 325 319 315 313 314 315 316 317 318 317 317 316
201 203 206 205 195 204 229 218 203 234 264 274 277 278 292 98 122 178 195 222 228 221 226 220 211 208 202 196 194 192 191 191 191 191 192 190 191 192 191 190 191 195 196 196 199 202 202 211 224 233 241 254 260 264 275 281 282 287 293 295 292 291 294 294 293 300 306 310 312 313 313 317 320 322 324 323 322 323 322 319 315 312 310 315 324 326 324 320 317 317 318 317 317 315 315 320 323